Time,TemperatureF,DewpointF,PressureIn,WindDirection,WindDirectionDegrees,WindSpeedMPH,WindSpeedGustMPH,Humidity,HourlyPrecipIn,Conditions,Clouds,dailyrainin,SolarRadiationWatts/m^2,SoftwareType,DateUTC
2013-10-06 00:03:00,50.0,50.0,-100.00,West,270,3.0,6.0,99,0.00,,,0.90,0.000000,,2013-10-06 05:03:00,
2013-10-06 00:43:00,50.0,50.0,-100.00,WNW,298,2.0,5.0,99,0.00,,,0.90,0.000000,,2013-10-06 05:43:00,
2013-10-06 00:52:00,50.0,50.0,-100.00,WNW,298,2.0,5.0,99,0.00,,,0.90,0.000000,,2013-10-06 05:52:00,
2013-10-06 01:02:00,50.0,50.0,-100.00,WNW,298,2.0,5.0,99,0.00,,,0.90,0.000000,,2013-10-06 06:02:00,
2013-10-06 01:42:00,50.0,50.0,-100.00,WNW,300,2.0,7.0,99,0.00,,,0.46,0.000000,,2013-10-06 06:42:00,
2013-10-06 01:52:00,50.0,50.0,-100.00,WNW,300,2.0,7.0,99,0.00,,,0.46,0.000000,,2013-10-06 06:52:00,
2013-10-06 02:02:00,50.0,50.0,-100.00,WNW,300,2.0,7.0,99,0.00,,,0.46,0.000000,,2013-10-06 07:02:00,
2013-10-06 02:43:00,49.0,49.0,-100.00,NW,307,2.0,7.0,99,0.00,,,0.33,0.000000,,2013-10-06 07:43:00,
2013-10-06 02:52:00,49.0,49.0,-100.00,NW,307,2.0,7.0,99,0.00,,,0.33,0.000000,,2013-10-06 07:52:00,
2013-10-06 03:02:00,49.0,49.0,-100.00,NW,307,2.0,7.0,99,0.00,,,0.33,0.000000,,2013-10-06 08:02:00,
2013-10-06 03:42:00,49.0,49.0,-100.00,NNW,330,2.0,4.0,100,0.00,,,0.33,0.000000,,2013-10-06 08:42:00,
2013-10-06 03:53:00,49.0,49.0,-100.00,NNW,330,2.0,4.0,100,0.00,,,0.33,0.000000,,2013-10-06 08:53:00,
2013-10-06 04:01:00,49.0,49.0,-100.00,NNW,330,2.0,4.0,100,0.00,,,0.33,0.000000,,2013-10-06 09:01:00,
2013-10-06 04:43:00,49.0,49.0,-100.00,North,5,0.0,3.0,100,0.00,,,0.33,0.000000,,2013-10-06 09:43:00,
2013-10-06 04:53:00,49.0,49.0,-100.00,North,5,0.0,3.0,100,0.00,,,0.33,0.000000,,2013-10-06 09:53:00,
2013-10-06 05:03:00,49.0,49.0,-100.00,North,5,0.0,3.0,100,0.00,,,0.33,0.000000,,2013-10-06 10:03:00,
2013-10-06 05:43:00,49.0,49.0,-100.00,NW,311,0.0,2.0,100,0.00,,,0.33,0.000000,,2013-10-06 10:43:00,
2013-10-06 05:53:00,49.0,49.0,-100.00,NW,311,0.0,2.0,100,0.00,,,0.33,0.000000,,2013-10-06 10:53:00,
2013-10-06 06:02:00,49.0,49.0,-100.00,NW,311,0.0,2.0,100,0.00,,,0.33,0.000000,,2013-10-06 11:02:00,
2013-10-06 06:42:00,49.0,49.0,-100.00,NW,316,2.0,5.0,100,0.01,,,0.34,0.000000,,2013-10-06 11:42:00,
2013-10-06 06:52:00,49.0,49.0,-100.00,NW,316,2.0,5.0,100,0.01,,,0.34,0.000000,,2013-10-06 11:52:00,
2013-10-06 07:02:00,49.0,49.0,-100.00,NW,316,2.0,5.0,100,0.01,,,0.34,0.000000,,2013-10-06 12:02:00,
2013-10-06 07:42:00,49.0,49.0,-100.00,NNW,332,1.0,5.0,100,0.00,,,0.34,0.000000,,2013-10-06 12:42:00,
2013-10-06 07:52:00,49.0,49.0,-100.00,NNW,332,1.0,5.0,100,0.00,,,0.34,0.000000,,2013-10-06 12:52:00,
2013-10-06 08:02:00,49.0,49.0,-100.00,NNW,332,1.0,5.0,100,0.00,,,0.34,0.000000,,2013-10-06 13:02:00,
2013-10-06 08:42:00,49.0,49.0,-100.00,NNW,339,2.0,4.0,100,0.02,,,0.36,5.000000,,2013-10-06 13:42:00,
2013-10-06 08:52:00,49.0,49.0,-100.00,NNW,339,2.0,4.0,100,0.02,,,0.36,5.000000,,2013-10-06 13:52:00,
2013-10-06 09:02:00,49.0,49.0,-100.00,NNW,339,2.0,4.0,100,0.02,,,0.36,5.000000,,2013-10-06 14:02:00,
2013-10-06 09:42:00,49.0,49.0,-100.00,North,5,4.0,8.0,99,0.00,,,0.36,36.000000,,2013-10-06 14:42:00,
2013-10-06 09:52:00,49.0,49.0,-100.00,North,5,4.0,8.0,99,0.00,,,0.36,36.000000,,2013-10-06 14:52:00,
2013-10-06 10:02:00,49.0,49.0,-100.00,North,5,4.0,8.0,99,0.00,,,0.36,36.000000,,2013-10-06 15:02:00,
2013-10-06 10:44:00,51.0,50.0,-100.00,NNE,13,5.0,11.0,95,0.00,,,0.36,108.000000,,2013-10-06 15:44:00,
2013-10-06 10:54:00,51.0,50.0,-100.00,NNE,13,5.0,11.0,95,0.00,,,0.36,108.000000,,2013-10-06 15:54:00,
2013-10-06 11:03:00,51.0,50.0,-100.00,NNE,13,5.0,11.0,95,0.00,,,0.36,108.000000,,2013-10-06 16:03:00,
2013-10-06 11:43:00,50.0,49.0,-100.00,North,4,5.0,13.0,98,0.01,,,0.37,88.000000,,2013-10-06 16:43:00,
2013-10-06 11:53:00,50.0,49.0,-100.00,North,4,5.0,13.0,98,0.01,,,0.37,88.000000,,2013-10-06 16:53:00,
2013-10-06 12:02:00,50.0,49.0,-100.00,North,4,5.0,13.0,98,0.01,,,0.37,88.000000,,2013-10-06 17:02:00,
2013-10-06 12:42:00,53.0,50.0,-100.00,North,2,5.0,11.0,91,0.00,,,0.36,204.000000,,2013-10-06 17:42:00,
2013-10-06 12:52:00,53.0,50.0,-100.00,North,2,5.0,11.0,91,0.00,,,0.36,204.000000,,2013-10-06 17:52:00,
2013-10-06 13:02:00,53.0,50.0,-100.00,North,2,5.0,11.0,91,0.00,,,0.36,204.000000,,2013-10-06 18:02:00,
2013-10-06 13:43:00,53.0,49.0,-100.00,NNW,348,5.0,12.0,87,0.00,,,0.36,149.000000,,2013-10-06 18:43:00,
2013-10-06 13:52:00,53.0,49.0,-100.00,NNW,348,5.0,12.0,87,0.00,,,0.36,149.000000,,2013-10-06 18:52:00,
2013-10-06 14:01:00,53.0,49.0,-100.00,NNW,348,5.0,12.0,87,0.00,,,0.36,149.000000,,2013-10-06 19:01:00,
2013-10-06 14:42:00,53.0,49.0,-100.00,NNW,338,4.0,10.0,87,0.00,,,0.36,101.000000,,2013-10-06 19:42:00,
2013-10-06 14:53:00,53.0,49.0,-100.00,NNW,338,4.0,10.0,87,0.00,,,0.36,101.000000,,2013-10-06 19:53:00,
2013-10-06 15:02:00,53.0,49.0,-100.00,NNW,338,4.0,10.0,87,0.00,,,0.36,101.000000,,2013-10-06 20:02:00,
2013-10-06 15:42:00,52.0,48.0,-100.00,NNW,336,3.0,11.0,87,0.00,,,0.36,71.000000,,2013-10-06 20:42:00,
2013-10-06 15:52:00,52.0,48.0,-100.00,NNW,336,3.0,11.0,87,0.00,,,0.36,71.000000,,2013-10-06 20:52:00,
2013-10-06 16:01:00,52.0,48.0,-100.00,NNW,336,3.0,11.0,87,0.00,,,0.36,71.000000,,2013-10-06 21:01:00,
2013-10-06 16:44:00,51.0,49.0,-100.00,NNW,339,5.0,16.0,92,0.00,,,0.34,73.000000,,2013-10-06 21:44:00,
2013-10-06 16:55:00,51.0,49.0,-100.00,NNW,339,5.0,16.0,92,0.00,,,0.34,73.000000,,2013-10-06 21:55:00,
2013-10-06 17:04:00,51.0,49.0,-100.00,NNW,339,5.0,16.0,92,0.00,,,0.34,73.000000,,2013-10-06 22:04:00,
2013-10-06 17:43:00,50.0,46.0,-100.00,NNW,332,5.0,13.0,85,0.00,,,0.29,51.000000,,2013-10-06 22:43:00,
2013-10-06 17:54:00,50.0,46.0,-100.00,NNW,332,5.0,13.0,85,0.00,,,0.29,51.000000,,2013-10-06 22:54:00,
2013-10-06 18:03:00,50.0,46.0,-100.00,NNW,332,5.0,13.0,85,0.00,,,0.29,51.000000,,2013-10-06 23:03:00,
2013-10-06 18:42:00,47.0,46.0,-100.00,NNW,338,3.0,13.0,96,0.01,,,0.29,13.000000,,2013-10-06 23:42:00,
2013-10-06 18:53:00,47.0,46.0,-100.00,NNW,338,3.0,13.0,96,0.01,,,0.29,13.000000,,2013-10-06 23:53:00,
2013-10-06 19:02:00,47.0,46.0,-100.00,NNW,338,3.0,13.0,96,0.01,,,0.29,13.000000,,2013-10-07 00:02:00,
2013-10-06 19:42:00,48.0,47.0,-100.00,NNW,329,4.0,8.0,95,0.01,,,0.21,4.000000,,2013-10-07 00:42:00,
2013-10-06 19:52:00,48.0,47.0,-100.00,NNW,329,4.0,8.0,95,0.01,,,0.21,4.000000,,2013-10-07 00:52:00,
2013-10-06 20:02:00,48.0,47.0,-100.00,NNW,329,4.0,8.0,95,0.01,,,0.21,4.000000,,2013-10-07 01:02:00,
2013-10-06 20:42:00,45.0,44.0,-100.00,SW,235,0.0,7.0,98,0.00,,,0.11,0.000000,,2013-10-07 01:42:00,
2013-10-06 20:53:00,45.0,44.0,-100.00,SW,235,0.0,7.0,98,0.00,,,0.11,0.000000,,2013-10-07 01:53:00,
2013-10-06 21:02:00,45.0,44.0,-100.00,SW,235,0.0,7.0,98,0.00,,,0.11,0.000000,,2013-10-07 02:02:00,
2013-10-06 21:42:00,40.0,40.0,-100.00,WSW,237,2.0,3.0,99,0.00,,,0.06,0.000000,,2013-10-07 02:42:00,
2013-10-06 21:53:00,40.0,40.0,-100.00,WSW,237,2.0,3.0,99,0.00,,,0.06,0.000000,,2013-10-07 02:53:00,
2013-10-06 22:02:00,40.0,40.0,-100.00,WSW,237,2.0,3.0,99,0.00,,,0.06,0.000000,,2013-10-07 03:02:00,
2013-10-06 22:44:00,40.0,40.0,-100.00,SW,225,1.0,5.0,100,0.00,,,0.06,0.000000,,2013-10-07 03:44:00,
2013-10-06 22:54:00,40.0,40.0,-100.00,SW,225,1.0,5.0,100,0.00,,,0.06,0.000000,,2013-10-07 03:54:00,
2013-10-06 23:04:00,40.0,40.0,-100.00,SW,225,1.0,5.0,100,0.00,,,0.06,0.000000,,2013-10-07 04:04:00,
2013-10-06 23:44:00,40.0,40.0,-100.00,SW,230,1.0,5.0,100,0.00,,,0.06,0.000000,,2013-10-07 04:44:00,
2013-10-06 23:53:00,40.0,40.0,-100.00,SW,230,1.0,5.0,100,0.00,,,0.06,0.000000,,2013-10-07 04:53:00,